Regional Weather Roundup
Issued by NWS Austin/San Antonio, TX

Current Version | Previous Version | Graphics & Text | Print | Product List | Glossary On
Versions: 1 2 3 4 5 6 7 8 9 10 11 12 13 14 15 16 17 18 19 20 21 22 23 24 25 26 27 28 29 30 31 32 33 34 35 36 37 38 39 40 41 42 43 44 45 46 47 48 49 50
000
ASUS44 KEWX 301013
RWREWX
SOUTH TEXAS REGIONAL WEATHER ROUNDUP
NATIONAL WEATHER SERVICE AUSTIN/SAN ANTONIO TX
500 AM CDT FRI SEP 30 2022

NOTE: "FAIR" INDICATED FEW OR NO CLOUDS BELOW 12,000 FEET WITH NO
SIGNIFICANT WEATHER AND/OR OBSTRUCTIONS TO VISIBILITY.

* - THESE STATIONS ARE NOT NWS OR FAA STATIONS...AND ARE NOT SUBJECT
    TO NWS AND FAA QUALITY CONTROL.

TXZ171-172-183>190-301100-
TEXAS HILL COUNTRY AND EDWARDS PLATEAU

CITY           SKY/WX    TMP DP  RH WIND       PRES   REMARKS
JUNCTION       CLEAR     56  47  71 CALM      30.10
*LLANO         MOCLDY    61  48  63 E5        30.08R
BURNET         CLEAR     64  48  56 E7        30.11S
*HORSESHOE BAY CLEAR     66  49  54 SE3       30.08S
*LAGO VISTA      N/A     63  47  56 E8        30.10R
*KERRVILLE     CLEAR     57  48  73 CALM      30.09S
*FREDERICKSBRG CLEAR     56  48  74 CALM      30.10R
*ROCKSPRINGS   CLOUDY    66  48  52 W5        30.15S
*BOERNE        CLEAR     55  46  71 CALM      30.08S
*CASTROVILLE   CLEAR     64  46  52 CALM      30.07R
HONDO          CLEAR     62  45  53 CALM      30.05S
*UVALDE        CLEAR     60  50  68 CALM      30.07S
DEL RIO        CLEAR     62  55  77 CALM      30.04F
*LAUGHLIN AFB  CLEAR     61  54  78 N7        30.02F
*SPOFFORD      CLEAR     59  49  68 W5        30.04S
CARRIZO SPRGS  CLEAR     61  50  67 CALM      30.03S
*FAITH RANCH   CLEAR     64  52  63 NW5       30.05S
$$

TXZ173-191>194-202-209-217>225-228-301100-
CENTRAL AND SOUTH CENTRAL TEXAS

CITY           SKY/WX    TMP DP  RH WIND       PRES   REMARKS
GEORGETOWN     CLEAR     64  45  49 E5        30.11S
*TAYLOR        CLEAR     63  46  54 E3        30.09S
AUSTIN/BERGSTM CLEAR     60  49  66 NE5       30.08R
AUSTIN/MABRY   CLEAR     67  47  48 E5        30.09S
*PFLUGERVILLE  MOCLDY    63  46  55 CALM      30.08R
SAN MARCOS     CLEAR    N/A N/A N/A NE8         N/A
NEW BRAUNFELS  CLEAR     63  52  67 N5        30.05R
*RANDOLPH AFB  CLEAR     62  51  69 N3        30.03S
*SEGUIN        CLEAR     63  57  81 E3        30.04R
SAN ANTONIO    CLEAR     67  50  54 NE3       30.07R
STINSON FIELD  CLEAR     65  53  65 CALM      30.04R
*KELLY FIELD   CLEAR     65  51  60 N3        30.03R
*PLEASANTON    CLEAR     60  53  78 CALM      30.05R
*KENEDY        CLEAR     64  59  85 E3        30.06S
*LA GRANGE     NOT AVBL
*GIDDINGS      CLEAR     63  45  51 E5        30.09S
*GONZALES      CLEAR     65  52  63 E3        30.07R
$$

TXZ163>164-176>182-195>201-210>213-226-227-235-301100-
SOUTHEAST TEXAS

CITY           SKY/WX    TMP DP  RH WIND       PRES   REMARKS
COLLEGE STN    CLEAR     61  46  57 CALM      30.09S
*BRYAN         CLEAR     59  45  58 CALM      30.12R
*CALDWELL      CLEAR     58  47  66 CALM      30.10S
*CROCKETT      CLEAR     50  46  87 CALM      30.10S
*BRENHAM       CLEAR     59  47  65 CALM      30.10
HUNTSVILLE     CLEAR     55  46  71 CALM      30.08F
CONROE         CLEAR     50  47  89 NW3       30.08F
HOUSTON BUSH   CLEAR     58  46  64 N3        30.07S
HOUSTON HOBBY  CLEAR     65  45  48 NE7       30.06S
*HOUSTON SW AP NOT AVBL
PEARLAND       CLEAR     62  48  60 NE5       30.07F
HOUSTON HOOKS  CLEAR     60  46  59 VRB3      30.07F
ELLINGTON FLD  CLEAR     61  46  59 N5        30.05F
SUGAR LAND     CLEAR     57  47  69 N5        30.06S
*HOUSTON EXEC  CLEAR     61  46  59 CALM      30.09S
*CLEVELAND MUN NOT AVBL
*WHARTON       CLEAR     58  49  73 N5        30.07S
*COLUMBUS      FAIR      60  49  67 CALM      30.09S
*EAGLE LAKE    CLEAR     57  51  79 MISG      30.07S
$$

TXZ214>216-236>238-301100-
THE UPPER TEXAS COAST

CITY           SKY/WX    TMP DP  RH WIND       PRES   REMARKS
*ORANGE        CLEAR     55  49  78 CALM      30.08S
PORT ARTHUR    CLEAR     56  48  74 N8        30.05S
GALVESTON      CLEAR     67  49  52 NE12      30.05S
ANGLETON       CLEAR     59  50  72 NE6       30.05S
*BAY CITY      CLEAR     58  52  79 NE7       30.05S
PALACIOS       CLEAR     59  53  80 N7        30.05R
$$

TXZ229>234-239>247-301100-
TEXAS COASTAL BEND AND RIO GRANDE PLAINS

CITY           SKY/WX    TMP DP  RH WIND       PRES   REMARKS
VICTORIA       CLEAR     61  58  90 NE8       30.05S
*BEEVILLE      CLEAR     60  58  94 NE5       30.03S
ROCKPORT       CLEAR     71  67  87 NW5       30.02F
*PORT ARANSAS  CLEAR    N/A N/A N/A NW8       30.04S
*PORT LAVACA   CLEAR     69  55  60 NE10      30.05S
*INGLESIDE     CLEAR     67  64  87 NE6       30.02S
CORPUS CHRISTI PTCLDY    67  61  81 N3        30.02F
CORPUS NAS     CLEAR     73  66  78 NW7       30.02S
*ROBSTOWN      CLEAR     65  61  86 MISG      30.03S
ALICE          CLEAR     59  58  96 CALM      30.02S
KINGSVILLE NAS CLEAR     61  60  97 CALM      30.03R
COTULLA        CLEAR     63  52  67 NW5       30.03S
LAREDO         CLEAR     70  56  61 CALM      30.02F
$$

TXZ248>255-301100-
DEEP SOUTH TEXAS

CITY           SKY/WX    TMP DP  RH WIND       PRES   REMARKS
BROWNSVILLE    CLEAR     66  63  90 CALM      30.01S
PORT ISABEL    CLEAR     65  63  93 W3        30.01S
HARLINGEN      CLEAR     64  63  96 CALM      30.01S
*HEBBRONVILLE  CLEAR     65  56  73 W5        30.04S
MCALLEN        CLEAR     65  60  84 W3        30.02F
*WESLACO       CLEAR     68  61  79 SW6       30.01F
FALFURRIAS     CLEAR     60  58  94 CALM      30.02R
EDINBURG       CLEAR     63  60  90 CALM      30.02S
*ZAPATA        CLEAR     65  62  89 E3        30.03F
$$

TXZ213>215-236>238-242>244-246-247-251-254-255-301100-
CMAN STATIONS

STATION/POSITION TIME  TEMP    WIND        PRES    WAVE
                       AIR SEA DIR/SP/G            HT/PER
                 (UTC) (F)     (DEG/KT/KT) (MB)    (FT/S)
SEA RIM ST PARK  1000   58     360/  7/  8 1017.5
NORTH JETTY/GLS  0942   68 77   50/ 14/ 16 1015.9
EAGLE POINT      0942   70 76   50/ 12/ 15 1017.0
MORGANS POINT    0942   64 79   10/  8/ 10 1017.1
MISSION/ARANSAS  0900   76     360/  5     1017.0
PORT O`CONNOR    0942   73 87  360/ 15/ 17 1016.6
PORT ARANSAS     1000   75     310/  6/  7   N/A
BAFFIN BAY       0942   71 81  290/  7/  8 1016.9
PORT ISABEL      0942   69 82  250/  4/  4 1015.6
$$



USA.gov is the U.S. government's official web portal to all federal, state and local government web resources and services.